Regional Weather Roundup
Issued by NWS

Home | Current Version | Previous Version | Graphics & Text | Print | Product List | Glossary On
Versions: 1 2 3 4 5 6 7 8 9 10 11 12 13 14 15 16 17 18 19 20 21 22 23 24 25 26 27 28 29 30 31 32 33 34 35 36 37 38 39 40 41 42 43 44 45 46 47 48 49 50
000
ASUS43 KMKX 211710
RWRWI

WISCONSIN REGIONAL WEATHER ROUNDUP
NATIONAL WEATHER SERVICE MILWAUKEE/SULLIVAN WI
1200 PM CDT SAT APR 21 2018

NOTE: "FAIR" INDICATES FEW OR NO CLOUDS BELOW 12,000 FEET WITH NO
SIGNIFICANT WEATHER AND/OR OBSTRUCTIONS TO VISIBILITY.

WIZ001-002-006>008-014>016-023>028-211800-
NORTHWEST WISCONSIN

CITY           SKY/WX    TMP DP  RH WIND       PRES   REMARKS
SUPERIOR ARPT  FAIR      55  21  26 SE5       30.39S
ASHLAND        FAIR      54  12  18 CALM      30.40S
HAYWARD        FAIR      53  17  24 VRB3      30.40F
SIREN          FAIR      54  19  25 E3        30.41S
CUMBERLAND     FAIR      46  18  31 CALM      30.41F
RICE LAKE      FAIR      49  20  31 W5        30.43S
CHETEK         FAIR      52  20  29 CALM      30.42S
LADYSMITH      FAIR      53  22  30 W3        30.42F
EAU CLAIRE     FAIR      53  24  32 VRB3      30.41F
MENOMONIE      FAIR      52  23  32 SE5       30.42F
NEW RICHMOND   FAIR      51  22  31 CALM      30.42S
OSCEOLA        FAIR      51  24  34 CALM      30.44F
$$

WIZ003>005-009-010-017-018-211800-
NORTH CENTRAL WISCONSIN

CITY           SKY/WX    TMP DP  RH WIND       PRES   REMARKS
MANITOWISH WTR FAIR      50  17  27 CALM      30.38F
ARBOR VITAE    FAIR      53  13  20 CALM      30.38F
WOODRUFF       FAIR      53  13  20 CALM      30.38F
RHINELANDER    FAIR      53  16  23 VRB6      30.39F
EAGLE RIVER    FAIR      53  11  18 CALM      30.38F
LAND O LAKES   FAIR      54  13  19 CALM      30.39F
PHILLIPS       FAIR      51  18  26 CALM      30.39F
TOMAHAWK       FAIR      53  17  24 S3        30.40F
MEDFORD        FAIR      47  18  31 SE5       30.41S
MERRILL          N/A     53  18  25 SW6       30.41F
$$

WIZ029-030-035-036-043>047-211800-
CENTRAL WISCONSIN

CITY           SKY/WX    TMP DP  RH WIND       PRES   REMARKS
WAUSAU         FAIR      52  15  23 CALM      30.39F
MOSINEE        MOSUNNY   54  19  26 S3        30.43S
MARSHFIELD     FAIR      52  18  26 CALM      30.40F
STEVENS POINT  FAIR      51  18  27 CALM      30.42F
WAUPACA        FAIR      56  18  22 S3        30.43F
WAUTOMA        NOT AVBL
WISC RAPIDS    FAIR      52  23  32 W9        30.43F
CAMP DOUGLAS   PTSUNNY   52  30  43 CALM      30.42F
$$

WIZ011>013-019>022-031-037>040-048>050-211800-
NORTHEAST WISCONSIN

CITY           SKY/WX    TMP DP  RH WIND       PRES   REMARKS
ANTIGO         FAIR      50  19  28 SW3       30.40F
SHAWANO        FAIR      56  14  18 CALM      30.42F
OCONTO         FAIR      52  21  29 SE6       30.42F
STURGEON BAY   FAIR      53  17  24 S7        30.43F
GREEN BAY      FAIR      48  24  39 S6        30.43F
MANITOWOC      FAIR      48  25  40 CALM      30.44F
APPLETON       PTSUNNY   50  12  22 SW8       30.43F
CLINTONVILLE   FAIR      53  19  27 SW6       30.43S
OSHKOSH        FAIR      48  23  37 S7        30.44F
$$

WIZ032>034-041-042-053>061-211800-
SOUTHWEST WISCONSIN

CITY           SKY/WX    TMP DP  RH WIND       PRES   REMARKS
LA CROSSE      FAIR      54  32  43 S7        30.42F
SPARTA         FAIR      53  32  44 CALM      30.43F
VIROQUA        FAIR      48  35  60 SW12      30.44R
BOSCOBEL       CLOUDY    53  37  54 VRB3      30.45F
PRAIRIE DU CHI CLOUDY    51  36  57 E6        30.43S
PLATTEVILLE    CLOUDY    49  37  64 E9        30.44S
$$

WIZ056-057-062-063-064-067-068-211800-
SOUTH CENTRAL WISCONSIN

CITY           SKY/WX    TMP DP  RH WIND       PRES   REMARKS
REEDSBURG      FAIR      50  29  45 S7        30.43F
BARABOO/DELLS  FAIR      50  24  35 SW5       30.43F
LONE ROCK      PTSUNNY   53  29  39 W8        30.44F
MINERAL POINT  PTSUNNY   50  36  57 S7        30.44F
MADISON        CLOUDY    53  30  41 VRB7      30.43F
MIDDLETON      FAIR      56  20  24 SW8       30.44F
WATERTOWN      FAIR      48  21  35 CALM      30.45F
MONROE         DRIZZLE   46  34  61 CALM      30.43F
JANESVILLE     CLOUDY    52  30  43 W9        30.45S
$$

WIZ051-052-058>065-066-070>072-211800-
SOUTHEAST WISCONSIN

CITY           SKY/WX    TMP DP  RH WIND       PRES   REMARKS
MILWAUKEE      CLOUDY    50  21  32 S3        30.46S
WAUKESHA       MOSUNNY   45  18  33 SW3       30.47S
MILWAUKEE/TIMM MOSUNNY   48  19  32 S3        30.46F
RACINE         FAIR      48  17  29 SE3       30.47F
BURLINGTON     FAIR      50  22  33 NE3       30.45S
KENOSHA        FAIR      52  21  29 CALM      30.45F
FOND DU LAC    FAIR      49  10  20 SW8       30.45S
SHEBOYGAN      FAIR      53  26  35 S7        30.44F
WEST BEND      FAIR      50  14  23 S6        30.45S
JUNEAU         FAIR      46  20  36 CALM      30.46F
$$

LSZ147-162-211800-
LAKE SUPERIOR

STATION/POSITION TIME  TEMP    WIND        PRES    WAVE
                       AIR SEA DIR/SP/G            HT/PER
                 (UTC) (F)     (DEG/KT/KT) (MB)    (FT/S)
DEVILS ISLAND    1700   41     270/  7/ 10 1030.3F
SAXON HARBOR     1630   43      50/  2/  3 1028.8F
$$

LMZ867-665-643>646-211800-
LAKE MICHIGAN

STATION/POSITION TIME  TEMP    WIND        PRES    WAVE
                       AIR SEA DIR/SP/G            HT/PER
                 (UTC) (F)     (DEG/KT/KT) (MB)    (FT/S)
NORTHPORT PIER   1640   38                 1030.1S
KEWAUNEE LAKESHO 1648   41     180/  7/  9 1029.6F
SHEBOYGAN LAKESH 1700   40     160/  8/  8 1031.4F
PORT WASHINGTON  1640   42     160/  1/  2 1032.2S
MILWAUKEE LAKESH 1650   42     180/  1/  1   N/A
KENOSHA   LAKESH 1700   42                 1031.2
$$

TC  - TEMPERATURE IN CELSIUS
VSB - VISIBILITY IN STATUTE MILES
WCI - WIND CHILL INDEX
HX  - HEAT INDEX




USA.gov is the U.S. government's official web portal to all federal, state and local government web resources and services.